NOAA-18
1 28654U 05018A 10209.77236527 .00000218 00000-0 14518-3 0 04235
2 28654 098.9516 155.9205 0013508 298.5873 061.3944 14.11374774267305
NOAA-19
1 33591U 09005A 10209.76948770 -.00000071 00000-0 -15190-4 0 06217
2 33591 098.7897 151.0096 0014195 167.4939 192.6607 14.11068911075771
HUBBLE
1 20580U 90037B 10209.73785346 .00000455 00000-0 22002-4 0 6114
2 20580 028.4699 328.5983 0003223 280.9802 079.0485 15.01004457911003
ISS
1 25544U 98067A 10210.98143638 .00011375 00000-0 92032-4 0 6080
2 25544 051.6458 011.5880 0007700 162.4749 289.0405 15.71338800670200
CO-58
1 28895U 05043F 10210.68088673 .00000209 00000-0 52899-4 0 6438
2 28895 098.0089 093.7390 0018527 149.2671 210.9613 14.59914421253183
FALCON
1 30776U 07006E 10211.04036157 .00000727 00000-0 54976-4 0 8818
2 30776 035.4323 144.1096 0001070 247.2813 112.7796 15.03731875186519
MAST
1 31126U 07012K 10209.59237586 .00000023 00000-0 15272-4 0 09255
2 31126 097.9359 249.4581 0095666 097.3456 263.8619 14.53604808174079
CAPE1
1 31130U 07012P 10209.06394437 .00000331 00000-0 86385-4 0 09458
2 31130 097.9358 246.2854 0104040 107.3307 253.9424 14.52202868173594
COMPASS
1 32787U 08021E 10209.28960679 .00000586 00000-0 80544-4 0 07359
2 32787 097.8923 273.4782 0016360 148.0261 212.1916 14.81919373121583
AAUSAT2
1 32788U 08021F 10209.62624064 .00000879 00000-0 11705-3 0 07293
2 32788 097.8928 273.9476 0015981 147.8300 212.3922 14.82065916121645
DO-64
1 32789U 08021G 10209.69838449 .00000933 00000-0 12343-3 0 07486
2 32789 097.8990 274.5387 0016386 146.3269 213.8967 14.82227774121659
CO-66
1 32791U 08021J 10209.18254145 .00000069 00000-0 15416-4 0 07304
2 32791 097.8941 273.3828 0016384 146.7635 213.4597 14.81695923121529
RS-30
1 32953U 08025A 10210.86914435 .00000010 00000-0 00000 0 0 9092
2 32953 082.5013 003.1306 0019041 012.8718 347.2847 12.43006888 99045
TACSAT-3
1 35001U 09028A 10210.72639035 .00004490 00000-0 10694-3 0 3452
2 35001 040.4562 318.5197 0022344 321.8881 038.0354 15.42138472 67207
PHARMSAT
1 35002U 09028B 10210.66614138 .00004399 00000-0 10299-3 0 3261
2 35002 040.4704 316.7328 0025281 324.9346 034.9810 15.42627659 67218
HAWKSAT1
1 35003U 09028C 10209.71041614 .00009349 00000-0 18942-3 0 3486
2 35003 040.4604 316.0175 0023564 335.9357 024.0354 15.46045923 67144
CP6
1 35004U 09028D 10209.68348967 .00011431 00000-0 22316-3 0 3456
2 35004 040.4624 314.9241 0022385 338.9135 021.0753 15.46999715 67142
AEROCUB3
1 35005U 09028E 10209.64446964 .00038014 00000-0 57369-3 0 03978
2 35005 040.4653 310.4925 0021020 358.6152 001.4603 15.53714712067199
CASTOR
1 35694U 09038F 10210.73514875 .00268297 48717-4 21448-3 0 5994
2 35694 051.6290 330.7188 0006024 339.7601 020.3092 16.13834798 57900
METEOR-M
1 35865U 09049A 10210.99059917 .00000176 00000-0 10000-3 0 5132
2 35865 098.7550 264.4777 0001527 248.3927 111.7083 14.21831100 44808
RS-38
1 35869U 09049E 10210.67600278 .00000177 00000-0 10000-3 0 5246
2 35869 098.7538 264.2002 0003769 241.3337 118.7444 14.21985582 44762
